(308743) = 2006 JY30

Discovered at Mount Lemmon on 2006-05-03 by Mt. Lemmon Survey.

Orbit

Orbit type: Main Belt

Note: WebGL enabled browser required.

epoch2023-02-25.0
epoch JD2460000.5
perihelion date2020-07-08.63999
perihelion JD2459039.13999
argument of perihelion (°)193.30798
ascending node (°)21.47971
inclination (°)2.99475
eccentricity0.1711318
perihelion distance (AU)1.9271714
Tisserand w.r.t. Jupiter3.6
ΔV w.r.t. Earth (km/sec)8.7
semimajor axis (AU)2.3250637
mean anomaly (°)267.26225
mean daily motion (°/day)0.27800430
aphelion distance (AU)2.723
period (years)3.55
P-vector [x]-0.82138691
P-vector [y]-0.51840558
P-vector [z]-0.23786383
Q-vector [x]0.57005050
Q-vector [y]-0.73214389
Q-vector [z]-0.37283742
absolute magnitude17.63
phase slope0.15
uncertainty0
referenceMPO 730457
observations used187
oppositions12
arc length (days)6117
first opposition used2006
last opposition used2022
residual rms (arc-secs)0.85
perturbers coarse indicatorM-v
perturbers precise indicator003El
first observation date used2006-03-25.0
last observation date used2022-12-23.0
computer nameMPCLINUX
JD of orbit computation2456937.224447
perihelion JD uncertainty (days)5.2773E-05
argument of perihelion uncertainty (°)7.3835E-05
ascending node uncertainty (°)7.1855E-05
inclination uncertainty (°)7.1874E-06
eccentricity uncertainty 6.2831E-08
perihelion distance uncertainty (AU)1.5054E-07
Minimum Orbit Intersection Distances (in AU)
for orbit epoch: 2460000.5, reference: E2022-YB9
Mercury1.48054
Venus1.20591
Earth0.92106
Mars0.31538
Jupiter2.24083
Saturn6.45027
Uranus16.3381
Neptune27.1341

Observations

196 total observations over interval: 2006 03 25.36486 – 2022 12 23.295490
These data are available for download (format description).

Date (UT) J2000 RA J2000 Dec Magn Location Ref
2006 03 25.36486 14 23 59.52 -14 18 22.1 20.3 V 691 – Steward Observatory, Kitt Peak-Spacewatch MPS 181153
2006 03 25.38213 14 23 59.11 -14 18 22.8 20.3 V 691 – Steward Observatory, Kitt Peak-Spacewatch MPS 181153
2006 03 25.39941 14 23 58.73 -14 18 23.8 20.1 V 691 – Steward Observatory, Kitt Peak-Spacewatch MPS 181153
2006 03 25.45435 14 23 57.44 -14 18 26.8 19.9 V G96 – Mt. Lemmon Survey MPS 181153
2006 03 25.46048 14 23 57.30 -14 18 27.1 19.9 V G96 – Mt. Lemmon Survey MPS 181153
2006 03 25.46632 14 23 57.12 -14 18 27.3 20.1 V G96 – Mt. Lemmon Survey MPS 181153
2006 03 25.47226 14 23 57.04 -14 18 27.6 20.2 V G96 – Mt. Lemmon Survey MPS 181153
2006 04 09.34820 14 15 24.04 -14 15 10.0   691 – Steward Observatory, Kitt Peak-Spacewatch MPS 181153
2006 04 09.36554 14 15 23.16 -14 15 08.8   691 – Steward Observatory, Kitt Peak-Spacewatch MPS 181153
2006 04 09.38288 14 15 22.29 -14 15 08.0   691 – Steward Observatory, Kitt Peak-Spacewatch MPS 181153
2006 04 19.40213 14 06 36.69 -13 58 11.4 18.7 R 644 – Palomar Mountain/NEAT MPS 181153
2006 04 19.42769 14 06 35.16 -13 58 08.0 18.7 R 644 – Palomar Mountain/NEAT MPS 181153
2006 04 19.45853 14 06 33.32 -13 58 03.9 19.1 R 644 – Palomar Mountain/NEAT MPS 181153
2006 05 03.27799 13 53 38.04 -13 25 38.4 19.2 V G96 – Mt. Lemmon Survey MPS 171460
2006 05 03.28359 13 53 37.71 -13 25 37.6 19.3 V G96 – Mt. Lemmon Survey MPS 171460
2006 05 03.28925 13 53 37.39 -13 25 36.7 19.2 V G96 – Mt. Lemmon Survey MPS 171460
2006 05 03.29473 13 53 37.10 -13 25 36.0 19.1 V G96 – Mt. Lemmon Survey MPS 171460
2006 05 07.25233 13 50 18.20 -13 16 48.0 19.6 V G96 – Mt. Lemmon Survey MPS 171460
2006 05 07.25774 13 50 17.91 -13 16 47.6 19.5 V G96 – Mt. Lemmon Survey MPS 171460
2006 05 07.26346 13 50 17.62 -13 16 46.5 19.7 V G96 – Mt. Lemmon Survey MPS 171460
2006 05 07.26887 13 50 17.34 -13 16 45.9 19.5 V G96 – Mt. Lemmon Survey MPS 171460
2007 09 14.26488 00 52 47.38 +04 13 28.2 20.7 V G96 – Mt. Lemmon Survey MPS 223481
2007 09 14.27096 00 52 47.06 +04 13 26.6 20.4 V G96 – Mt. Lemmon Survey MPS 223481
2007 09 14.27698 00 52 46.74 +04 13 25.3 20.9 V G96 – Mt. Lemmon Survey MPS 223481
2007 09 14.28287 00 52 46.48 +04 13 23.3 20.5 V G96 – Mt. Lemmon Survey MPS 223481
2007 10 19.24310 00 20 29.40 +01 25 09.6 22.0 V G96 – Mt. Lemmon Survey MPS 223481
2007 10 19.24853 00 20 29.07 +01 25 09.0 22.6 V G96 – Mt. Lemmon Survey MPS 223481
2007 10 19.25397 00 20 28.82 +01 25 06.9 22.0 V G96 – Mt. Lemmon Survey MPS 223481
2007 10 19.25956 00 20 28.53 +01 25 05.6 20.9 V G96 – Mt. Lemmon Survey MPS 223481
2008 12 05.30663 07 59 34.58 +25 07 01.0 22.3 V G96 – Mt. Lemmon Survey MPS 267563
2008 12 05.31337 07 59 34.47 +25 07 02.1 21.8 V G96 – Mt. Lemmon Survey MPS 267563
2008 12 05.32012 07 59 34.29 +25 07 03.5 21.1 V G96 – Mt. Lemmon Survey MPS 267563
2008 12 05.32686 07 59 34.18 +25 07 04.0 21.2 V G96 – Mt. Lemmon Survey MPS 267563
2008 12 31.29293 07 41 08.64 +26 31 48.2 20.3 V 691 – Steward Observatory, Kitt Peak-Spacewatch MPS 270177
2008 12 31.31107 07 41 07.40 +26 31 51.9 20.3 V 691 – Steward Observatory, Kitt Peak-Spacewatch MPS 270177
2008 12 31.32945 07 41 06.19 +26 31 55.6 20.4 V 691 – Steward Observatory, Kitt Peak-Spacewatch MPS 270177
2010 08 18.324937 20 16 41.549 -24 41 42.28 20.31 i F51 – Pan-STARRS 1, Haleakala MPS 365596
2010 08 18.335919 20 16 41.012 -24 41 42.75 20.32 i F51 – Pan-STARRS 1, Haleakala MPS 365596
2010 08 18.349001 20 16 40.373 -24 41 43.26 20.74 r F51 – Pan-STARRS 1, Haleakala MPS 365596
2010 08 18.360035 20 16 39.850 -24 41 43.50 20.81 r F51 – Pan-STARRS 1, Haleakala MPS 365596
2011 10 24.55843 03 32 23.283 +21 08 00.37 22.0 w F51 – Pan-STARRS 1, Haleakala MPS 396321
2011 10 24.57361 03 32 22.457 +21 07 58.60 21.8 w F51 – Pan-STARRS 1, Haleakala MPS 396321
2011 10 24.58884 03 32 21.646 +21 07 57.11 21.9 w F51 – Pan-STARRS 1, Haleakala MPS 396321
2011 11 17.30877 03 08 01.46 +20 03 31.8 21.1 V G96 – Mt. Lemmon Survey MPS 400015
2011 11 17.31781 03 08 00.88 +20 03 30.6 20.3 V G96 – Mt. Lemmon Survey MPS 400015
2011 11 17.32686 03 08 00.27 +20 03 28.5 20.3 V G96 – Mt. Lemmon Survey MPS 400015
2011 11 17.33594 03 07 59.62 +20 03 26.1 20.7 V G96 – Mt. Lemmon Survey MPS 400015
2013 03 05.28209 12 54 30.35 -03 34 27.2   691 – Steward Observatory, Kitt Peak-Spacewatch MPS 461603
2013 03 05.29726 12 54 29.95 -03 34 26.5   691 – Steward Observatory, Kitt Peak-Spacewatch MPS 461603
2013 03 05.31253 12 54 29.43 -03 34 25.0   691 – Steward Observatory, Kitt Peak-Spacewatch MPS 461603
2013 03 05.31948 12 54 29.30 -03 34 23.9 19.8 V 703 – Catalina Sky Survey MPS 459177
2013 03 05.32735 12 54 29.01 -03 34 23.7 19.6 V 703 – Catalina Sky Survey MPS 459177
2013 03 05.33529 12 54 28.80 -03 34 21.2 19.4 V 703 – Catalina Sky Survey MPS 459177
2013 03 05.34325 12 54 28.44 -03 34 21.1 19.3 V 703 – Catalina Sky Survey MPS 459177
2013 03 13.25140 12 49 53.21 -03 18 31.8 19.6 V 691 – Steward Observatory, Kitt Peak-Spacewatch MPS 461603
2013 03 13.26905 12 49 52.44 -03 18 29.2 19.8 V 691 – Steward Observatory, Kitt Peak-Spacewatch MPS 461603
2013 03 13.28668 12 49 51.67 -03 18 26.7 20.1 V 691 – Steward Observatory, Kitt Peak-Spacewatch MPS 461603
2013 03 15.37309 12 48 21.02 -03 12 54.9 19.7 V 703 – Catalina Sky Survey MPS 460482
2013 03 15.37929 12 48 20.73 -03 12 53.1 19.3 V 703 – Catalina Sky Survey MPS 460482
2013 03 15.38552 12 48 20.37 -03 12 52.3 20.2 V 703 – Catalina Sky Survey MPS 460482
2013 03 15.39171 12 48 20.12 -03 12 51.6 19.3 V 703 – Catalina Sky Survey MPS 460482
2013 03 15.39800 12 48 19.80 -03 12 50.7 19.4 V 703 – Catalina Sky Survey MPS 460482
2013 03 31.18545 12 34 26.90 -02 20 39.1 18.8 R 926 – Tenagra II Observatory, Nogales MPS 462614
2013 03 31.19399 12 34 26.36 -02 20 37.3 18.7 V G96 – Mt. Lemmon Survey MPS 462614
2013 03 31.19946 12 34 26.03 -02 20 36.2 18.7 R 926 – Tenagra II Observatory, Nogales MPS 462614
2013 03 31.20351 12 34 25.78 -02 20 35.2 18.6 V G96 – Mt. Lemmon Survey MPS 462614
2013 03 31.21308 12 34 25.24 -02 20 33.1 18.7 V G96 – Mt. Lemmon Survey MPS 462614
2013 03 31.21349 12 34 25.23 -02 20 33.3 19.1 R 926 – Tenagra II Observatory, Nogales MPS 462614
2013 03 31.22279 12 34 24.63 -02 20 31.2 18.8 V G96 – Mt. Lemmon Survey MPS 462614
2013 04 04.26316 12 30 34.67 -02 06 36.1 19.5 G G45 – Space Surveillance Telescope, Atom Site MPS 1609354
2013 04 04.29299 12 30 32.94 -02 06 30.0 18.8 V G96 – Mt. Lemmon Survey MPS 462614
2013 04 04.29819 12 30 32.65 -02 06 28.9 18.8 V G96 – Mt. Lemmon Survey MPS 462614
2013 04 04.30344 12 30 32.29 -02 06 28.1 18.8 V G96 – Mt. Lemmon Survey MPS 462614
2013 04 04.30862 12 30 32.00 -02 06 27.2 18.8 V G96 – Mt. Lemmon Survey MPS 462614
2013 04 04.37755 12 30 27.87 -02 06 13.2 19.8 G G45 – Space Surveillance Telescope, Atom Site MPS 1609354
2013 04 04.39603 12 30 26.80 -02 06 09.5 19.3 G G45 – Space Surveillance Telescope, Atom Site MPS 1609354
2013 04 04.43705 12 30 24.43 -02 06 01.9 19.6 G G45 – Space Surveillance Telescope, Atom Site MPS 1609354
2013 04 10.37489 12 25 00.377 -01 47 24.00 20.1 g F51 – Pan-STARRS 1, Haleakala MPS 463951
2013 04 10.38582 12 24 59.768 -01 47 22.05 20.1 g F51 – Pan-STARRS 1, Haleakala MPS 463951
2013 04 13.87007 12 22 04.18 -01 38 07.6 19.4 R J04 – ESA Optical Ground Station, Tenerife MPS 464941
2013 04 13.88165 12 22 03.64 -01 38 06.0 19.7 R J04 – ESA Optical Ground Station, Tenerife MPS 464941
2013 04 13.89322 12 22 03.03 -01 38 04.6 19.2 R J04 – ESA Optical Ground Station, Tenerife MPS 464941
2013 04 13.90479 12 22 02.41 -01 38 02.6 19.4 R J04 – ESA Optical Ground Station, Tenerife MPS 464941
2013 04 17.29916 12 19 25.851 -01 30 33.83 19.7 i F51 – Pan-STARRS 1, Haleakala MPS 464941
2013 04 17.31101 12 19 25.295 -01 30 32.53 19.6 i F51 – Pan-STARRS 1, Haleakala MPS 464941
2014 09 30.35994 23 54 54.74 -02 21 57.0 21.3 V G96 – Mt. Lemmon Survey MPS 538632
2014 09 30.36588 23 54 54.39 -02 21 59.0 20.4 V G96 – Mt. Lemmon Survey MPS 538632
2014 09 30.37181 23 54 54.04 -02 22 00.1 20.2 V G96 – Mt. Lemmon Survey MPS 538632
2014 09 30.37774 23 54 53.70 -02 22 02.2 20.9 V G96 – Mt. Lemmon Survey MPS 538632
2017 05 06.59057 19 49 21.262 -24 58 52.83 20.8 w F51 – Pan-STARRS 1, Haleakala MPS 797707
